Location: Unspecified
(35.7250°N, 0.0000°E)
Time: 11:41:31
(UTC+00:00)

Transit 4A - Visible Passes

Search period start: 05 August 2020 00:00
Search period end: 15 August 2020 00:00
Orbit: 865 x 980 km, 66.8° (Epoch: 05 August)

Date Brightness Start Highest point End Pass type
(mag) Time Alt. Az. Time Alt. Az. Time Alt. Az.
05 Aug 9.9 20:48:43 10° NW 20:53:36 23° WSW 20:58:29 10° SSW visible
06 Aug 10.4 20:59:19 10° WNW 21:02:39 15° WSW 21:05:58 10° SW visible
07 Aug 8.3 19:20:00 10° NNW 19:26:21 71° WSW 19:32:43 10° SSE visible
08 Aug 9.0 19:29:31 10° NW 19:35:35 47° WSW 19:41:39 10° S visible
09 Aug 9.7 19:39:16 10° NW 19:44:45 31° WSW 19:50:13 10° SSW visible
10 Aug 10.4 19:49:24 10° WNW 19:53:50 20° WSW 19:58:16 10° SSW visible
11 Aug 10.7 20:00:31 10° W 20:02:51 12° W 20:05:11 10° WSW visible
